Вернуться в каталог

STARLINK-31458

АктивенСвязьVLEO
NORAD 59501·PAYLOAD·🇺🇸 United States

Запущен Apr 13, 2024 с Cape Canaveral Space Force Station

Loading…

Ближайшие Пролёты (ближайшие 24 часа)

TLE

СвежийSource: CelesTrak SupGP

Эпоха: Sep 14, 2026, 22:42 UTC

1 59501C 24071T   26257.94631944 -.00026801  00000+0 -97083-3 0  2571
2 59501  43.0028 350.7794 0001489 267.0265  19.5589 15.27588385    14

Отслеживайте STARLINK-31458 в реальном времени с AllMySat

Download on the App Store